This is the latest recevied weather packets stored in our database for station/object W5MAI. If no packets are shown the sender has not sent any weather packets the latest 10 day(s).
| Time | Temp. | Humidity | Pressure | Rain* | Wind** | Luminosity | Snow |
|---|---|---|---|---|---|---|---|
| 1777767226 | 23.33° C | 40% | 1021.5 hPa | 0 mm | - | 114 W/m² | - |
| 1777766661 | 23.33° C | 41% | 1021.5 hPa | 0 mm | - | 149 W/m² | - |
| 1777766031 | 23.33° C | 41% | 1021.5 hPa | 0 mm | - | 193 W/m² | - |
| 1777765454 | 23.33° C | 38% | 1021.3 hPa | 0 mm | - | 230 W/m² | - |
| 1777764833 | 23.89° C | 37% | 1021.4 hPa | 0 mm | - | 265 W/m² | - |
| 1777764207 | 23.89° C | 40% | 1021.3 hPa | 0 mm | - | 304 W/m² | - |
| 1777763628 | 23.33° C | 42% | 1021.5 hPa | 0 mm | - | 339 W/m² | - |
| 1777763057 | 23.33° C | 39% | 1021.4 hPa | 0 mm | - | 376 W/m² | - |
| 1777762426 | 23.33° C | 41% | 1021.2 hPa | 0 mm | - | 413 W/m² | - |
| 1777761853 | 23.33° C | 41% | 1021.2 hPa | 0 mm | - | 446 W/m² | - |
| 1777761205 | 23.33° C | 40% | 1021.1 hPa | 0 mm | - | 485 W/m² | - |
| 1777760638 | 23.89° C | 41% | 1021.2 hPa | 0 mm | - | 520 W/m² | - |
| 1777760006 | 23.33° C | 41% | 1021.2 hPa | 0 mm | - | 550 W/m² | - |
| 1777758836 | 23.33° C | 41% | 1021.3 hPa | 0 mm | - | 617 W/m² | - |
| 1777758262 | 23.33° C | 43% | 1021.4 hPa | 0 mm | - | 645 W/m² | - |
| 1777757629 | 23.33° C | 41% | 1021.5 hPa | 0 mm | - | 682 W/m² | - |
| 1777757042 | 23.33° C | 44% | 1021.7 hPa | 0 mm | - | 701 W/m² | - |
| 1777756410 | 23.33° C | 42% | 1021.8 hPa | 0 mm | - | 742 W/m² | - |
| 1777755823 | 23.33° C | 44% | 1022.1 hPa | 0 mm | - | 763 W/m² | - |
| 1777755252 | 23.33° C | 45% | 1022.3 hPa | 0 mm | - | 786 W/m² | - |
| 1777754613 | 22.78° C | 44% | 1022.4 hPa | 0 mm | - | 810 W/m² | - |
| 1777754060 | 23.33° C | 46% | 1022.5 hPa | 0 mm | - | 830 W/m² | - |
| 1777753422 | 22.78° C | 44% | 1022.6 hPa | 0 mm | - | 849 W/m² | - |
| 1777752858 | 22.78° C | 47% | 1022.8 hPa | 0 mm | - | 874 W/m² | - |
| 1777752205 | 22.22° C | 48% | 1022.8 hPa | 0 mm | - | 884 W/m² | - |
* Rain latest hour (hover to see other rain measurements)
** Current wind speed in m/s (hover to see current wind gust speed)